Deering, AK

10:49 AM AKDT on May 25, 2017 (GMT -0800)
Deering (New)

Weather History for PADE - May, 2013

Change the Weather History Date:

Wednesday, May 8, 2013

  Actual Average (PAOT) Record (PAOT)
Temperature  
Mean Temperature 32 °F -  
Max Temperature 37 °F 34 °F 57 °F (1978)
Min Temperature 26 °F 21 °F -5 °F (1949)
Degree Days  
Heating Degree Days 34    
Moisture  
Dew Point 25 °F    
Average Humidity 78    
Maximum Humidity 93    
Minimum Humidity 64    
Precipitation  
Precipitation 0.00 in - - ()
Sea Level Pressure  
Sea Level Pressure 30.27 in    
Wind  
Wind Speed 9 mph (South)    
Max Wind Speed 12 mph    
Max Gust Speed -    
Visibility 9 miles    
Events Snow    
Averages and records for this station are not official NWS values.
T = Trace of Precipitation, MM = Missing Value Source: NWS Daily Summary

Daily Weather History Graph

Daily Weather History Graph

Search for Another Location

Airport or City:

Trip Planner

Search our weather history database for the weather conditions in past years. The results will help you decide how hot, cold, wet, or windy it might be!

Date:

Astronomy

May. 08, 2013 Rise Set
Actual Time 5:37 AM AKDT 12:00 AM AKDT
Civil Twilight 3:46 AM AKDT 2:00 AM AKDT
Nautical Twilight Sun does not set Sun does not set
Astronomical Twilight Sun does not set Sun does not set
Moon 5:32 AM AKDT (5/8) 10:47 PM AKDT (5/8)
Length of Visible Light 22h 13m
Length of Day
18h 22m
Waning Crescent, 1% of the Moon is Illuminated
May 8
Waning Crescent
May 9
New
May 17
First Quarter
May 24
Full
May 31
Last Quarter

Hourly Weather History & Observations

Time (AKDT) Temp. Windchill Dew Point Humidity Pressure Visibility Wind Dir Wind Speed Gust Speed Precip Events Conditions
12:07 AM 30.2 °F 21.3 °F 28.4 °F 93% 30.20 in 3.0 mi South 10.4 mph - 0.00 in Snow Light Snow
12:53 AM 30.9 °F 22.2 °F 27.0 °F 85% 30.21 in 4.0 mi SSW 10.4 mph - 0.00 in Snow Light Snow
1:11 AM 30.2 °F 21.3 °F 26.6 °F 86% 30.21 in 4.0 mi South 10.4 mph - 0.00 in Snow Light Snow
1:53 AM 30.9 °F 21.7 °F 26.1 °F 82% 30.22 in 9.0 mi South 11.5 mph - 0.00 in   Overcast
2:53 AM 30.9 °F 22.8 °F 26.1 °F 82% 30.23 in 8.0 mi South 9.2 mph - 0.00 in   Overcast
3:53 AM 30.0 °F 20.5 °F 25.0 °F 82% 30.23 in 10.0 mi SSE 11.5 mph - N/A   Overcast
4:53 AM 28.9 °F 19.8 °F 24.1 °F 82% 30.24 in 10.0 mi SSE 10.4 mph - N/A   Overcast
5:53 AM 28.9 °F 19.2 °F 23.0 °F 78% 30.24 in 10.0 mi SSE 11.5 mph - N/A   Overcast
6:53 AM 28.0 °F 18.1 °F 21.0 °F 75% 30.25 in 10.0 mi SSE 11.5 mph - N/A   Overcast
7:53 AM 26.1 °F 19.4 °F 21.0 °F 81% 30.25 in 10.0 mi SSE 5.8 mph - N/A   Partly Cloudy
8:53 AM 26.1 °F 21.9 °F 19.9 °F 78% 30.27 in 10.0 mi SW 3.5 mph - N/A   Clear
9:53 AM 27.0 °F 20.5 °F 21.0 °F 78% 30.27 in 10.0 mi SSE 5.8 mph - N/A   Partly Cloudy
12:53 PM 32.0 °F 24.2 °F 26.1 °F 79% 30.30 in - SSE 9.2 mph - N/A   Partly Cloudy
3:53 PM 35.1 °F 28.6 °F 27.0 °F 72% 30.31 in 10.0 mi SSE 8.1 mph - N/A   Overcast
4:53 PM 36.0 °F 30.3 °F 26.1 °F 67% 30.31 in 10.0 mi SSE 6.9 mph - N/A   Clear
5:53 PM 36.0 °F 33.3 °F 25.0 °F 64% 30.31 in 10.0 mi South 3.5 mph - N/A   Clear
6:53 PM 37.0 °F 32.4 °F 28.0 °F 70% 30.30 in 10.0 mi SSE 5.8 mph - N/A   Clear
7:53 PM 35.1 °F 29.3 °F 27.0 °F 72% 30.31 in 10.0 mi SSE 6.9 mph - N/A   Clear
8:53 PM 35.1 °F 32.2 °F 28.0 °F 76% 30.31 in 10.0 mi South 3.5 mph - N/A   Overcast
9:53 PM 33.1 °F 27.7 °F 26.1 °F 75% 30.31 in 10.0 mi South 5.8 mph - N/A   Partly Cloudy
10:53 PM 30.9 °F - 25.0 °F 79% 30.32 in 10.0 mi Calm Calm - N/A   Clear
11:53 PM 30.0 °F 25.2 °F 24.1 °F 79% 30.32 in 10.0 mi SSW 4.6 mph - N/A   Clear